KA8UPW-1 Weather Reports


time (UTC)temp
F
wind
direction
speed
knots
gust
knots
rain 1hr
in
rain 24hr
in
rain mn
in
humidity
%
barometer
mb
20260510231803 59 0 0.0 0.0 0.00 0.05 0.00 46 1016.6
20260510230904 59 0 0.0 0.0 0.00 0.05 0.00 45 1016.6
20260510230005 59 0 0.0 0.0 0.00 0.05 0.00 46 1016.6
20260510225621 59 0 0.0 0.0 0.00 0.05 0.00 46 1016.7
20260510224503 60 0 0.0 0.0 0.00 0.05 0.00 44 1016.5
20260510223821 61 0 0.0 0.0 0.00 0.05 0.00 44 1016.5
20260510222703 60 0 0.0 0.0 0.00 0.05 0.00 48 1016.6
20260510221804 61 0 0.0 0.0 0.00 0.05 0.00 45 1016.5
20260510220904 61 0 0.0 0.0 0.00 0.05 0.00 44 1016.5
20260510220004 60 0 0.0 0.0 0.00 0.05 0.00 45 1016.4
20260510215617 60 0 0.0 0.0 0.00 0.05 0.00 47 1016.4
20260510214504 60 0 0.0 0.0 0.00 0.05 0.00 46 1016.2
20260510213603 60 0 0.0 0.0 0.00 0.05 0.00 46 1016.1
20260510212919 60 0 0.0 0.0 0.00 0.05 0.00 47 1016.0
20260510211804 60 0 0.0 0.0 0.00 0.05 0.00 48 1015.8
20260510210903 60 0 0.0 0.0 0.00 0.05 0.00 46 1015.7
20260510210004 60 0 0.0 0.0 0.00 0.05 0.00 48 1015.7
20260510205403 61 0 0.0 0.0 0.00 0.05 0.00 49 1015.8
20260510204503 61 0 0.0 0.0 0.00 0.05 0.00 46 1015.8
20260510203822 61 0 0.0 0.0 0.00 0.05 0.00 48 1015.8
20260510202703 61 0 0.0 0.0 0.00 0.05 0.00 45 1015.8
20260510202017 61 0 0.0 0.0 0.00 0.05 0.00 45 1015.8
20260510200904 61 0 0.0 0.0 0.00 0.05 0.00 47 1015.9
20260510200004 60 0 0.0 0.0 0.00 0.05 0.00 48 1016.1
20260510195403 61 0 0.0 0.0 0.00 0.05 0.00 45 1016.1
20260510194504 62 0 0.0 0.0 0.00 0.05 0.00 45 1016.1
20260510193604 62 0 0.0 0.0 0.00 0.05 0.00 45 1016.2
20260510192703 62 0 0.0 0.0 0.00 0.05 0.00 44 1016.1
20260510191803 63 0 0.0 0.0 0.00 0.05 0.00 44 1016.1
20260510190903 61 0 0.0 0.0 0.00 0.05 0.00 47 1016.0
20260510190005 61 0 0.0 0.0 0.00 0.05 0.00 46 1016.0
20260510185403 60 0 0.0 0.0 0.00 0.05 0.00 44 1016.0
20260510184503 61 0 0.0 0.0 0.00 0.05 0.00 47 1015.9
20260510183604 61 0 0.0 0.0 0.00 0.05 0.00 44 1016.0
20260510182703 61 0 0.0 0.0 0.00 0.05 0.00 48 1015.9
20260510181805 61 0 0.0 0.0 0.00 0.05 0.00 47 1015.8
20260510180903 61 0 0.0 0.0 0.00 0.05 0.00 52 1015.8
20260510180005 60 0 0.0 0.0 0.00 0.05 0.00 48 1015.6
20260510175403 60 0 0.0 0.0 0.00 0.05 0.00 51 1015.5
20260510174503 60 0 0.0 0.0 0.00 0.05 0.00 52 1015.6
20260510173603 60 0 0.0 0.0 0.00 0.05 0.00 51 1015.8
20260510172703 59 0 0.0 0.0 0.00 0.05 0.00 51 1015.7
20260510171804 60 0 0.0 0.0 0.00 0.05 0.00 56 1015.8
20260510170904 59 0 0.0 0.0 0.00 0.05 0.00 54 1016.0
20260510170005 58 0 0.0 0.0 0.00 0.05 0.00 57 1016.0
20260510165404 58 0 0.0 0.0 0.00 0.05 0.00 53 1016.0
20260510164504 59 0 0.0 0.0 0.00 0.05 0.00 55 1016.1
20260510163604 58 0 0.0 0.0 0.00 0.05 0.00 53 1016.0
20260510162922 58 0 0.0 0.0 0.00 0.05 0.00 53 1015.9
20260510161804 57 0 0.0 0.0 0.00 0.05 0.00 53 1015.8
20260510160903 57 0 0.0 0.0 0.00 0.05 0.00 59 1015.7
20260510160219 57 0 0.0 0.0 0.00 0.05 0.00 57 1015.8
20260510155403 56 0 0.0 0.0 0.00 0.05 0.00 58 1015.8
20260510154503 56 0 0.0 0.0 0.00 0.05 0.00 56 1015.7
20260510153604 56 0 0.0 0.0 0.00 0.05 0.00 62 1015.5
20260510152923 55 0 0.0 0.0 0.00 0.05 0.00 58 1015.5
20260510151804 55 0 0.0 0.0 0.00 0.05 0.00 60 1015.3
20260510150904 55 0 0.0 0.0 0.00 0.05 0.00 61 1015.1
20260510150004 54 0 0.0 0.0 0.00 0.05 0.00 60 1015.1
20260510145403 54 0 0.0 0.0 0.00 0.05 0.00 64 1015.0
20260510144718 53 0 0.0 0.0 0.00 0.05 0.00 61 1014.9
20260510143604 54 0 0.0 0.0 0.00 0.05 0.00 67 1014.7
20260510142703 53 0 0.0 0.0 0.00 0.05 0.00 68 1014.5
20260510142021 53 0 0.0 0.0 0.00 0.05 0.00 71 1014.4
20260510141118 52 0 0.0 0.0 0.00 0.05 0.00 72 1014.3
20260510140003 52 0 0.0 0.0 0.00 0.05 0.00 71 1014.3
20260510135403 52 0 0.0 0.0 0.00 0.05 0.00 72 1014.3
20260510134504 51 0 0.0 0.0 0.00 0.05 0.00 71 1014.3
20260510133603 51 0 0.0 0.0 0.00 0.05 0.00 72 1014.2
20260510132703 51 0 0.0 0.0 0.00 0.05 0.00 75 1014.2
20260510131803 50 0 0.0 0.0 0.00 0.05 0.00 76 1014.1
20260510130903 49 0 0.0 0.0 0.00 0.05 0.00 77 1014.1
20260510130004 49 0 0.0 0.0 0.00 0.05 0.00 78 1013.9
20260510125403 49 0 0.0 0.0 0.00 0.05 0.00 78 1013.7
20260510124720 49 0 0.0 0.0 0.00 0.05 0.00 79 1013.8
20260510123817 49 0 0.0 0.0 0.00 0.05 0.00 80 1013.5
20260510122704 49 0 0.0 0.0 0.00 0.05 0.00 80 1013.2
20260510121804 49 0 0.0 0.0 0.00 0.05 0.00 79 1013.1
20260510120904 49 0 0.0 0.0 0.00 0.05 0.00 79 1013.0
20260510120005 49 0 0.0 0.0 0.00 0.05 0.00 78 1012.8
20260510115405 49 0 0.0 0.0 0.00 0.05 0.00 78 1012.8
20260510114503 49 0 0.0 0.0 0.00 0.05 0.00 78 1012.5
20260510113603 49 0 0.0 0.0 0.00 0.05 0.00 79 1012.1
20260510112920 49 0 0.0 0.0 0.00 0.05 0.00 79 1012.1
20260510111804 49 0 0.0 0.0 0.00 0.05 0.00 80 1012.1
20260510111120 48 0 0.0 0.0 0.00 0.05 0.00 80 1011.8
20260510110004 48 0 0.0 0.0 0.00 0.05 0.00 80 1011.6
20260510105619 48 0 0.0 0.0 0.00 0.05 0.00 80 1011.5
20260510104503 48 0 0.0 0.0 0.00 0.05 0.00 79 1011.4
20260510103818 48 0 0.0 0.0 0.00 0.05 0.00 79 1011.2
20260510102704 48 0 0.0 0.0 0.00 0.05 0.00 79 1011.0
20260510101803 48 0 0.0 0.0 0.00 0.05 0.00 79 1010.9
20260510101120 48 0 0.0 0.0 0.00 0.05 0.00 79 1010.7
20260510100008 47 0 0.0 0.0 0.00 0.05 0.00 81 1010.4
20260510095403 47 0 0.0 0.0 0.00 0.05 0.00 82 1010.4
20260510094504 47 0 0.0 0.0 0.00 0.05 0.00 83 1010.3
20260510093819 47 0 0.0 0.0 0.00 0.05 0.00 83 1010.2
20260510092704 47 0 0.0 0.0 0.00 0.05 0.00 83 1010.3
20260510091803 48 0 0.0 0.0 0.00 0.05 0.00 82 1010.1
20260510090905 48 0 0.0 0.0 0.00 0.05 0.00 81 1010.0
20260510090003 48 0 0.0 0.0 0.00 0.05 0.00 81 1010.1
20260510085403 48 0 0.0 0.0 0.00 0.05 0.00 81 1010.0
20260510084504 48 0 0.0 0.0 0.00 0.05 0.00 80 1009.8
20260510083603 49 0 0.0 0.0 0.00 0.05 0.00 80 1009.7
20260510082922 49 0 0.0 0.0 0.00 0.05 0.00 80 1009.6
20260510081803 50 0 0.0 0.0 0.00 0.05 0.00 78 1009.4
20260510080904 50 0 0.0 0.0 0.00 0.05 0.00 78 1009.3
20260510080004 51 0 0.0 0.0 0.00 0.05 0.00 77 1009.2
20260510075403 51 0 0.0 0.0 0.00 0.05 0.00 77 1009.1
20260510074503 51 0 0.0 0.0 0.00 0.05 0.00 77 1008.8
20260510073603 52 0 0.0 0.0 0.00 0.05 0.00 76 1008.9
20260510072704 52 0 0.0 0.0 0.00 0.05 0.00 76 1008.9
20260510071803 53 0 0.0 0.0 0.00 0.05 0.00 75 1008.6
20260510071117 53 0 0.0 0.0 0.00 0.05 0.00 76 1008.7
20260510070004 54 0 0.0 0.0 0.00 0.06 0.00 78 1008.5
20260510065403 54 0 0.0 0.0 0.00 0.06 0.00 79 1008.5
20260510064503 55 0 0.0 0.0 0.00 0.06 0.00 79 1008.4
20260510063603 55 0 0.0 0.0 0.00 0.06 0.00 79 1008.3
20260510062704 56 0 0.0 0.0 0.00 0.06 0.00 80 1008.1
20260510061803 56 0 0.0 0.0 0.00 0.06 0.00 81 1008.0
20260510061118 56 0 0.0 0.0 0.00 0.06 0.00 82 1007.9
20260510060220 57 0 0.0 0.0 0.00 0.09 0.00 82 1007.8
20260510055622 57 0 0.0 0.0 0.00 0.11 0.00 83 1007.8
20260510054504 58 0 0.0 0.0 0.00 0.14 0.00 81 1007.7
20260510053603 58 0 0.0 0.0 0.00 0.17 0.00 82 1007.6
20260510052919 57 0 0.0 0.0 0.00 0.18 0.00 83 1007.5
20260510051804 57 0 0.0 0.0 0.00 0.18 0.00 83 1007.2
20260510050904 57 0 0.0 0.0 0.00 0.18 0.00 84 1006.9
20260510050003 57 0 0.0 0.0 0.00 0.18 0.00 85 1006.9
20260510045404 57 0 0.0 0.0 0.00 0.19 0.00 86 1006.9
20260510044503 57 0 0.0 0.0 0.00 0.21 0.00 86 1006.7
20260510043817 57 0 0.0 0.0 0.00 0.23 0.00 87 1006.6
20260510042704 57 0 0.0 0.0 0.02 0.27 0.00 87 1006.6
20260510042017 56 0 0.0 0.0 0.02 0.28 0.00 89 1006.6
20260510040903 55 0 0.0 0.0 0.02 0.29 0.00 92 1006.7
20260510040010 55 0 0.0 0.0 0.02 0.29 0.00 93 1006.8
20260510035403 54 0 0.0 0.0 0.02 0.29 0.29 92 1006.8
20260510034720 54 0 0.0 0.0 0.02 0.29 0.29 92 1006.3
20260510033604 54 0 0.0 0.0 0.02 0.29 0.29 93 1006.1
20260510032920 54 0 0.0 0.0 0.01 0.28 0.28 93 1006.3
20260510031804 54 0 0.0 0.0 0.00 0.28 0.27 93 1006.1
20260510031120 54 0 0.0 0.0 0.00 0.30 0.27 93 1006.2
20260510030004 54 0 0.0 0.0 0.00 0.31 0.27 93 1006.3
20260510025404 54 0 0.0 0.0 0.00 0.31 0.27 93 1006.3
20260510024503 55 0 0.0 0.0 0.00 0.31 0.27 92 1006.3
20260510023818 55 0 0.0 0.0 0.00 0.32 0.27 92 1006.4
20260510022704 55 0 0.0 0.0 0.00 0.32 0.27 92 1006.2
20260510021804 56 0 0.0 0.0 0.00 0.32 0.27 92 1006.0
20260510020904 56 0 0.0 0.0 0.00 0.32 0.27 92 1005.9
20260510020004 56 0 0.0 0.0 0.00 0.32 0.27 92 1005.8
20260510015403 56 0 0.0 0.0 0.00 0.32 0.27 92 1005.7
20260510014716 56 0 0.0 0.0 0.00 0.32 0.27 92 1005.6
20260510013604 56 0 0.0 0.0 0.00 0.32 0.27 91 1005.5
20260510012704 56 0 0.0 0.0 0.00 0.33 0.27 91 1005.1
20260510011803 56 0 0.0 0.0 0.00 0.33 0.27 91 1005.1
20260510010904 56 0 0.0 0.0 0.00 0.33 0.27 91 1005.0
20260510010005 56 0 0.0 0.0 0.00 0.33 0.27 91 1005.0
20260510005403 56 0 0.0 0.0 0.00 0.33 0.27 90 1005.0
20260510004505 56 0 0.0 0.0 0.01 0.34 0.27 90 1004.8
20260510003603 56 0 0.0 0.0 0.03 0.34 0.27 89 1004.8
20260510002703 57 0 0.0 0.0 0.03 0.34 0.27 89 1004.7
20260510001804 57 0 0.0 0.0 0.03 0.34 0.27 88 1004.6
20260510000903 57 0 0.0 0.0 0.03 0.34 0.27 88 1004.7
20260510000008 57 0 0.0 0.0 0.03 0.34 0.27 87 1004.8
20260509235404 57 0 0.0 0.0 0.03 0.34 0.27 86 1004.9
20260509234503 58 0 0.0 0.0 0.02 0.33 0.26 84 1005.0
20260509233603 59 0 0.0 0.0 0.00 0.31 0.24 79 1004.8
20260509232703 61 0 0.0 0.0 0.00 0.32 0.24 74 1004.8